Погода в Садовом

Россия / Хабаровский край     47°33′09″N   134°48′33″E
темп.,
°C
ветер,
м/с
пор.,
м/с
влажн.,
%
обл.,
%
осадки,
мм/ч
давл.,
гПа
погр.,
м
25 мая, ср
ср2501:00+9ююз2295100 0.4 100935
04:00+9юз1194100 0.4 100924
07:00+10св1397100 0.3 1010181
10:00+8св3597100 0.6 1011294
13:00+9св3598100 1.2 1011275
16:00+11св4590100 1.6 1009485
19:00+12всв378763 0.0 1008384
22:00+10в2296100 0.0 100928
26 мая, чт
чт2601:00+9всв2597100 0.0 1008122
04:00+9в239798 0.1 100673
07:00+11всв239297 0.0 1006118
10:00+16всв3477100 0.0 1005406
13:00+22св446091 0.0 1003935
16:00+24св565766 0.0 1000936
19:00+16ссв3392100 16.1 1001185
22:00+14вюв2293100 19.7 100238
27 мая, пт
пт2701:00+14вюв1191100 0.2 100116
04:00+11ююв229165 0.2 100120
07:00+13ююв12870 0.0 100170
10:00+18ю24575 0.0 10011305
13:00+21юз244365 0.0 10002134
16:00+21зсз335599 0.0 999944
19:00+18зсз2374100 0.1 99869
22:00+13юз1188100 0.3 99910
28 мая, сб
сб2801:00+13юз118799 0.1 99911
04:00+11ю119267 0.3 99911
07:00+13вюв008912 0.1 99983
10:00+18ссв127932 1.1 999301
13:00+20св226745 2.9 9981017
16:00+21зюз01667 4.3 9981101
19:00+19юз22795 0.8 999112
22:00+15ююв118996 1.3 100011
29 мая, вс
вс2901:00+14юв229162 0.3 100115
04:00+13вюв2292100 0.3 100219
07:00+14вюв1290100 0.0 100369
10:00+20вюв236762 0.0 1002542
13:00+25юв2445100 0.0 10012081
16:00+26ююз3745100 0.0 10002478
19:00+20юз71264100 0.0 1002569
22:00+16юв51388100 0.7 1002509